This is the latest recevied weather packets stored in our database for station/object WI5KEY. If no packets are shown the sender has not sent any weather packets the latest 10 day(s).
| Time | Temp. | Humidity | Pressure | Rain* | Wind** | Luminosity | Snow |
|---|---|---|---|---|---|---|---|
| 1778097648 | 29.44° C | 74% | 1008.6 hPa | 0 mm | - | - | - |
| 1778096748 | 30° C | 73% | 1008.7 hPa | 0 mm | - | - | - |
| 1778095848 | 30° C | 71% | 1008.8 hPa | 0 mm | - | - | - |
| 1778094946 | 30° C | 71% | 1008.9 hPa | 0 mm | - | - | - |
| 1778094045 | 30.56° C | 74% | 1009.1 hPa | 0 mm | - | - | - |
| 1778093143 | 30° C | 73% | 1009.1 hPa | 0 mm | - | - | - |
| 1778092241 | 29.44° C | 75% | 1009.5 hPa | 0 mm | - | - | - |
| 1778091339 | 29.44° C | 76% | 1009.6 hPa | 0 mm | - | - | - |
| 1778090445 | 29.44° C | 77% | 1009.8 hPa | 0 mm | - | - | - |
| 1778089532 | 28.33° C | 80% | 1009.9 hPa | 0 mm | - | - | - |
| 1778088628 | 27.78° C | 84% | 1010.2 hPa | 0 mm | - | - | - |
| 1778087727 | 27.22° C | 85% | 1010.3 hPa | 0 mm | - | - | - |
| 1778086823 | 27.22° C | 86% | 1010.3 hPa | 0 mm | - | - | - |
| 1778085921 | 26.67° C | 87% | 1010.3 hPa | 0 mm | - | - | - |
| 1778085035 | 26.11° C | 87% | 1010.4 hPa | 0 mm | - | - | - |
| 1778084117 | 26.11° C | 88% | 1010.4 hPa | 0 mm | - | - | - |
| 1778083219 | 25.56° C | 88% | 1010.2 hPa | 0 mm | - | - | - |
| 1778082312 | 25.56° C | 89% | 1009.9 hPa | 0 mm | - | - | - |
| 1778081410 | 25.56° C | 89% | 1009.6 hPa | 0 mm | - | - | - |
| 1778080508 | 25.56° C | 90% | 1009.4 hPa | 0 mm | - | - | - |
| 1778079605 | 25° C | 91% | 1009.3 hPa | 0 mm | - | - | - |
| 1778078704 | 25° C | 92% | 1009.1 hPa | 0 mm | - | - | - |
| 1778077802 | 24.44° C | 93% | 1008.9 hPa | 0 mm | - | - | - |
| 1778076960 | 24.44° C | 93% | 1008.9 hPa | 0 mm | - | - | - |
| 1778076060 | 24.44° C | 94% | 1008.5 hPa | 0 mm | - | - | - |
* Rain latest hour (hover to see other rain measurements)
** Current wind speed in m/s (hover to see current wind gust speed)